User: anonymous   Login
Location: Unspecified
(0.0000°N, 0.0000°E)
Time: 07:45:01
(UTC+00:00)
Language:

ATS 5 - Orbit

View from above orbital plane
View from above orbital plane
View from above satellite
View from above satellite

Ground track
Ground track

The orbit data is extracted from the following two-line orbital elements,

1  4068U 69069A   18112.66450878 +.00000073 +00000-0 +00000-0 0  9995
2  4068 007.2405 301.1989 0005699 315.2859 052.8309 00.99490848016703
Epoch (UTC): 22 April 2018 15:56:53
Eccentricity: 0.0005699
inclination: 7.2405°
perigee height: 35982 km
apogee height: 36031 km
right ascension of ascending node: 301.1989°
argument of perigee: 315.2859°
revolutions per day: 0.99490848
mean anomaly at epoch: 52.8309°
orbit number at epoch: 1670

The dashed part of the orbit path shows where the satellite is in the earth's shadow,  

DLR